Regional Weather Roundup
Issued by NWS Charleston, SC

Current Version | Previous Version | Text Only | Print | Product List | Glossary Off
Versions: 1 2 3 4 5 6 7 8 9 10 11 12 13 14 15 16 17 18 19 20 21 22 23 24 25 26 27 28 29 30 31 32 33 34 35 36 37 38 39 40 41 42 43 44 45 46 47 48 49 50

000
ASUS42 KCHS 032327
RWRCHS

REGIONAL WEATHER ROUNDUP
NATIONAL WEATHER SERVICE CHARLESTON SC
700 PM EDT THU SEP 03 2015

NOTE: "FAIR" INDICATES FEW OR NO CLOUDS BELOW 12,000 FEET WITH NO
SIGNIFICANT WEATHER AND/OR OBSTRUCTIONS TO VISIBILITY.

NOT ALL STATIONS ARE QUALITY CONTROLLED BY THE NATIONAL
WEATHER SERVICE. USE DATA WITH CAUTION...ESPECIALLY
DEWPOINT OBSERVATIONS.

SCZ027-030-031-034>040-042>050-040000-
...SOUTHEAST SOUTH CAROLINA...

CITY           SKY/WX    TMP DP  RH WIND       PRES   REMARKS
N CHARLESTON   CLOUDY    83  74  74 S8        29.89R
WATERFRONT PRK   N/A     82  76  82 S5        29.86F
MOUNT PLEASANT LGT RAIN  81  75  83 CALM      29.90R
JOHNS ISLAND   MOCLDY    82  77  83 S7        29.89S HX  91
PINOPOLIS        N/A     86  77  74 VRB3      29.82R HX  97
MONCKS CORNER  FAIR      82  73  74 CALM      29.89R
SUMMERVILLE    MOCLDY    82  73  74 CALM      29.90S
BEAUFORT MCAS  MOCLDY    85  76  74 S5        29.88S HX  94
BEAUFORT ARPT  FAIR      82  75  78 CALM      29.89R
HILTON HEAD IS MOCLDY    82  73  74 SE5       29.90S
WALTERBORO     MOCLDY    86  72  62 CALM      29.90S HX  92
ALLENDALE      FAIR      84  75  74 CALM      29.88S HX  92

...SOUTHERN MIDLANDS AND PEE DEE...

CITY           SKY/WX    TMP DP  RH WIND       PRES   REMARKS
GEORGETOWN     NOT AVBL
KINGSTREE      NOT AVBL
ORANGEBURG     CLOUDY    83  73  72 S3        29.90S
BARNWELL       FAIR      88  73  62 CALM      29.90S HX  96
AIKEN          FAIR      82  68  61 W5        29.94F
MANNING        FAIR      82  72  69 CALM      29.88S
COLUMBIA       CLOUDY    87  72  60 CALM      29.89S HX  93
SUMTER         CLOUDY    82  72  69 CALM      29.86F
FLORENCE       CLOUDY    88  73  61 E5        29.87S HX  95
MYRTLE BEACH   MOCLDY    79  70  73 SW7       29.91F
N MYRTLE BEACH TSTM      75  70  84 S5        29.89S

$$

GAZ063-065-086>088-099>101-113>116-118-119-134>141-150-040000-
...SOUTHEAST GEORGIA...

CITY           SKY/WX    TMP DP  RH WIND       PRES   REMARKS
SAVANNAH ARPT  MOCLDY    85  76  74 S7        29.89S HX  94
HUNTER AAF     PTCLDY    84  80  89 SE3       29.87S HX  97
FORT STEWART   CLOUDY    86  75  71 CALM      29.87F HX  95
STATESBORO     LGT RAIN  83  79  86 W5        29.90S HX  94
SYLVANIA       NOT AVBL
CLAXTON        NOT AVBL

...CSRA...CENTRAL AND FAR SOUTHEAST GEORGIA...

CITY           SKY/WX    TMP DP  RH WIND       PRES   REMARKS
THOMSON        PTSUNNY   86  81  84 CALM      29.95S HX 102
AUGUSTA-BUSH   MOCLDY    87  74  64 CALM      29.89S HX  95
AUGUSTA-DANIEL MOCLDY    87  73  62 CALM      29.91S HX  94
SWAINSBORO     FAIR      86  75  70 CALM      29.92S HX  95
VIDALIA        CLOUDY    82  77  83 SW3       29.92S HX  91
EASTMAN        FAIR      85  78  78 CALM      29.94S HX  96
HAZLEHURST     FAIR      86  78  77 CALM      29.91S HX  97
ALMA           CLOUDY    85  75  72 CALM      29.91S HX  93
WAYCROSS       LGT RAIN  84  82  93 CALM      29.91F HX 100
JESUP          FAIR      86  81  84 CALM      29.90S HX 102
BAXLEY         MOCLDY    84  77  79 CALM      29.91S HX  94
BRUNSWICK      CLOUDY    81  79  94 W5        29.91R THUNDER
SAINT SIMONS   MOCLDY    82  76  81 NE3       29.90R

$$

SCZ027-028-034-036>038-045-046-048>050-GAZ119-141-040000-
...LAKE AND SUPPLEMENTAL COASTAL OBSERVATIONS...

STATION/POSITION TIME  TEMP    WIND        PRES    WAVE   SWELL
                       AIR SEA DIR/SP/G            HT/PER HT/PER/DIR
                 (UTC) (F)     (DEG/KT/KT) (MB)    (FT/S) (FT/S/D)
UPR LAKE MARION  NOT AVBL
WINYAH BAY       2245   82     200/  5     1012.0R
LAKE MURRAY      2200   86     260/  7/ 10 1011.5S
ACE BASIN NERRS  NOT AVBL
FORT PULASKI     2300   82 83  120/  3/  4 1012.6F
SAPELO ISLAND    2300   82      40/  1     1012.0S

$$

ANZ835-935-AMZ111-154-330-350-352-354-370-450-454-472-040000-
...C-MAN AND BUOY OBSERVATIONS...

STATION/POSITION TIME  TEMP    WIND        PRES    WAVE   SWELL
                       AIR SEA DIR/SP/G            HT/PER HT/PER/DIR
                 (UTC) (F)     (DEG/KT/KT) (MB)    (FT/S) (FT/S/D)
BUOY 41004       2250   81 84  160/  8/ 10 1011.9F   2/ 8   2/ 8
BUOY 41008       2250   81 84   50/  6/  8 1012.5R   1/ 9   2/ 90/ 9
FOLLY BEACH CMAN 2300   81     200/  6/  8 1012.4R
CAPERS NEARSHORE 2208   82     190/ 10/ 14 1012.2F
FRIPP NEARSHORE  2200   84     150/  6/  8 1012.0F


STATION/POSITION TIME  TEMP    WIND        PRES    WAVE   SWELL
                       AIR SEA DIR/SP/G            HT/PER HT/PER/DIR
                 (UTC) (F)     (DEG/KT/KT) (MB)    (FT/S) (FT/S/D)
5E ST. MARYS GA  2221      86                N/A     1/ 8
FRYING PAN BUOY  2250   82 82  250/ 10/ 10 1012.4F   2/ 3   2/130/ 8
BUOY 41025       2250   81 86  260/  2/  6 1011.9R   1/ 8   2/ 80/ 8
CAPE LOOKOUT NC  2300   80     220/  4/  5 1011.8R
BUOY 41002       2250   83 84  300/  6/  8 1012.1F   2/12   2/ 80/12
BUOY 41010       2220   85 86  290/  4/  6 1012.8F
ST AUGUSTINE FL  2300   83 85  120/  2/  3 1013.3R


$$


USA.gov is the U.S. government's official web portal to all federal, state and local government web resources and services.